| time (UTC) | temp F | wind direction | speed MPH | gust MPH | rain 1hr in | rain 24hr in | rain mn in | humidity % | barometer mb |
| 20260831042032 | 67 | 32 | 5.0 | 11.0 | 0.00 | 0.00 | 0.00 | 58 | 1013.3 |
| 20260831041822 | 67 | 1 | 6.0 | 11.0 | 0.00 | 0.00 | 0.00 | 57 | 1013.2 |
| 20260831041739 | 67 | 4 | 5.0 | 11.0 | 0.00 | 0.00 | 0.00 | 57 | 1013.3 |
| 20260831040529 | 67 | 30 | 7.0 | 14.0 | 0.00 | 0.00 | 0.00 | 56 | 1013.2 |
| 20260831040031 | 68 | 14 | 7.0 | 15.0 | 0.00 | 0.00 | 0.00 | 56 | 1013.1 |
| 20260831035534 | 68 | 18 | 7.0 | 15.0 | 0.00 | 0.00 | 0.00 | 56 | 1013.1 |
| 20260831035030 | 68 | 31 | 5.0 | 12.0 | 0.00 | 0.00 | 0.00 | 56 | 1013.1 |
| 20260831034524 | 68 | 26 | 5.0 | 11.0 | 0.00 | 0.00 | 0.00 | 56 | 1013.1 |
| 20260831034025 | 68 | 22 | 6.0 | 12.0 | 0.00 | 0.00 | 0.00 | 55 | 1013.1 |
| 20260831033747 | 69 | 58 | 5.0 | 12.0 | 0.00 | 0.00 | 0.00 | 55 | 1013.2 |
| 20260831033023 | 69 | 24 | 4.0 | 9.0 | 0.00 | 0.00 | 0.00 | 55 | 1013.1 |
| 20260831032522 | 69 | 16 | 5.0 | 9.0 | 0.00 | 0.00 | 0.00 | 55 | 1013.1 |
| 20260831032019 | 69 | 25 | 5.0 | 10.0 | 0.00 | 0.00 | 0.00 | 54 | 1013.0 |
| 20260831031956 | 69 | 6 | 5.0 | 13.0 | 0.00 | 0.00 | 0.00 | 54 | 1013.1 |
| 20260831031012 | 69 | 13 | 5.0 | 13.0 | 0.00 | 0.00 | 0.00 | 54 | 1013.2 |
| 20260831030512 | 70 | 30 | 5.0 | 11.0 | 0.00 | 0.00 | 0.00 | 54 | 1013.1 |
| 20260831030009 | 70 | 22 | 5.0 | 11.0 | 0.00 | 0.00 | 0.00 | 53 | 1013.2 |
| 20260831025507 | 70 | 39 | 5.0 | 11.0 | 0.00 | 0.00 | 0.00 | 52 | 1013.1 |
| 20260831025005 | 71 | 22 | 5.0 | 11.0 | 0.00 | 0.00 | 0.00 | 52 | 1013.1 |
| 20260831024504 | 71 | 45 | 5.0 | 11.0 | 0.00 | 0.00 | 0.00 | 51 | 1013.2 |
| 20260831024222 | 71 | 43 | 6.0 | 11.0 | 0.00 | 0.00 | 0.00 | 51 | 1013.2 |
| 20260831023455 | 71 | 45 | 6.0 | 11.0 | 0.00 | 0.00 | 0.00 | 50 | 1013.2 |
| 20260831022953 | 72 | 16 | 7.0 | 13.0 | 0.00 | 0.00 | 0.00 | 49 | 1013.2 |
| 20260831022454 | 72 | 36 | 7.0 | 13.0 | 0.00 | 0.00 | 0.00 | 47 | 1013.1 |
| 20260831021953 | 72 | 5 | 8.0 | 15.0 | 0.00 | 0.00 | 0.00 | 47 | 1013.1 |
| 20260831021452 | 72 | 20 | 8.0 | 15.0 | 0.00 | 0.00 | 0.00 | 46 | 1013.2 |
| 20260831021208 | 72 | 16 | 7.0 | 13.0 | 0.00 | 0.00 | 0.00 | 46 | 1013.2 |
| 20260831020449 | 73 | 6 | 8.0 | 14.0 | 0.00 | 0.00 | 0.00 | 46 | 1013.2 |
| 20260831015949 | 73 | 27 | 8.0 | 16.0 | 0.00 | 0.00 | 0.00 | 45 | 1013.3 |
| 20260831015710 | 73 | 353 | 8.0 | 16.0 | 0.00 | 0.00 | 0.00 | 44 | 1013.2 |
| 20260831014947 | 74 | 12 | 8.0 | 13.0 | 0.00 | 0.00 | 0.00 | 42 | 1013.3 |
| 20260831014450 | 74 | 324 | 8.0 | 17.0 | 0.00 | 0.00 | 0.00 | 42 | 1013.3 |
| 20260831013948 | 74 | 333 | 9.0 | 17.0 | 0.00 | 0.00 | 0.00 | 40 | 1013.3 |
| 20260831013445 | 74 | 9 | 9.0 | 16.0 | 0.00 | 0.00 | 0.00 | 39 | 1013.3 |
| 20260831012945 | 75 | 10 | 9.0 | 16.0 | 0.00 | 0.00 | 0.00 | 38 | 1013.3 |
| 20260831012445 | 75 | 50 | 9.0 | 16.0 | 0.00 | 0.00 | 0.00 | 38 | 1013.3 |
| 20260831011941 | 75 | 347 | 9.0 | 16.0 | 0.00 | 0.00 | 0.00 | 37 | 1013.4 |
| 20260831011702 | 75 | 352 | 9.0 | 17.0 | 0.00 | 0.00 | 0.00 | 36 | 1013.4 |
| 20260831010942 | 75 | 2 | 9.0 | 17.0 | 0.00 | 0.00 | 0.00 | 36 | 1013.4 |
| 20260831010442 | 76 | 18 | 8.0 | 16.0 | 0.00 | 0.00 | 0.00 | 36 | 1013.5 |
| 20260831005941 | 76 | 356 | 8.0 | 20.0 | 0.00 | 0.00 | 0.00 | 35 | 1013.5 |
| 20260831005441 | 76 | 52 | 8.0 | 20.0 | 0.00 | 0.00 | 0.00 | 36 | 1013.4 |
| 20260831004943 | 76 | 10 | 8.0 | 15.0 | 0.00 | 0.00 | 0.00 | 36 | 1013.5 |
| 20260831004437 | 76 | 347 | 9.0 | 18.0 | 0.00 | 0.00 | 0.00 | 35 | 1013.8 |
| 20260831004420 | 76 | 0 | 9.0 | 18.0 | 0.00 | 0.00 | 0.00 | 35 | 1013.9 |
| 20260831003437 | 76 | 1 | 8.0 | 14.0 | 0.00 | 0.00 | 0.00 | 35 | 1014.0 |
| 20260831002939 | 76 | 38 | 9.0 | 15.0 | 0.00 | 0.00 | 0.00 | 36 | 1014.0 |
| 20260831002440 | 76 | 359 | 10.0 | 16.0 | 0.00 | 0.00 | 0.00 | 35 | 1014.1 |
| 20260831002203 | 77 | 63 | 8.0 | 16.0 | 0.00 | 0.00 | 0.00 | 36 | 1014.0 |
| 20260831001438 | 77 | 357 | 7.0 | 18.0 | 0.00 | 0.00 | 0.00 | 36 | 1014.0 |
| 20260831000937 | 77 | 30 | 8.0 | 18.0 | 0.00 | 0.00 | 0.00 | 36 | 1014.0 |
| 20260831000439 | 77 | 52 | 8.0 | 16.0 | 0.00 | 0.00 | 0.00 | 37 | 1014.0 |
| 20260830235939 | 77 | 69 | 9.0 | 16.0 | 0.00 | 0.00 | 0.00 | 36 | 1014.1 |
| 20260830235438 | 78 | 36 | 9.0 | 16.0 | 0.00 | 0.00 | 0.00 | 36 | 1014.1 |
| 20260830234930 | 77 | 16 | 9.0 | 16.0 | 0.00 | 0.00 | 0.00 | 38 | 1014.2 |
| 20260830234431 | 77 | 46 | 9.0 | 15.0 | 0.00 | 0.00 | 0.00 | 35 | 1014.2 |
| 20260830233930 | 77 | 75 | 10.0 | 18.0 | 0.00 | 0.00 | 0.00 | 34 | 1014.3 |
| 20260830233422 | 78 | 357 | 10.0 | 18.0 | 0.00 | 0.00 | 0.00 | 38 | 1014.3 |
| 20260830232920 | 77 | 3 | 9.0 | 17.0 | 0.00 | 0.00 | 0.00 | 38 | 1014.4 |
| 20260830232423 | 78 | 12 | 9.0 | 16.0 | 0.00 | 0.00 | 0.00 | 37 | 1014.7 |
| 20260830231917 | 77 | 0 | 9.0 | 15.0 | 0.00 | 0.00 | 0.00 | 38 | 1014.7 |
| 20260830231418 | 78 | 46 | 8.0 | 15.0 | 0.00 | 0.00 | 0.00 | 37 | 1014.9 |
| 20260830230911 | 77 | 12 | 9.0 | 16.0 | 0.00 | 0.00 | 0.00 | 38 | 1015.0 |
| 20260830230405 | 78 | 21 | 9.0 | 16.0 | 0.00 | 0.00 | 0.00 | 36 | 1015.2 |
| 20260830230349 | 77 | 352 | 9.0 | 15.0 | 0.00 | 0.00 | 0.00 | 38 | 1015.2 |
| 20260830225408 | 77 | 33 | 10.0 | 20.0 | 0.00 | 0.00 | 0.00 | 38 | 1015.2 |
| 20260830225126 | 78 | 9 | 10.0 | 20.0 | 0.00 | 0.00 | 0.00 | 38 | 1015.3 |
| 20260830224405 | 78 | 16 | 9.0 | 16.0 | 0.00 | 0.00 | 0.00 | 40 | 1015.4 |
| 20260830223902 | 77 | 12 | 9.0 | 17.0 | 0.00 | 0.00 | 0.00 | 40 | 1015.5 |
| 20260830223401 | 78 | 15 | 9.0 | 17.0 | 0.00 | 0.00 | 0.00 | 43 | 1015.6 |
| 20260830222900 | 77 | 10 | 9.0 | 16.0 | 0.00 | 0.00 | 0.00 | 43 | 1015.5 |
| 20260830222400 | 77 | 31 | 9.0 | 16.0 | 0.00 | 0.00 | 0.00 | 40 | 1015.7 |
| 20260830221901 | 77 | 15 | 7.0 | 16.0 | 0.00 | 0.00 | 0.00 | 40 | 1015.7 |
| 20260830221358 | 78 | 340 | 7.0 | 16.0 | 0.00 | 0.00 | 0.00 | 41 | 1015.8 |
| 20260830220857 | 77 | 25 | 8.0 | 16.0 | 0.00 | 0.00 | 0.00 | 39 | 1015.8 |
| 20260830220401 | 77 | 357 | 8.0 | 13.0 | 0.00 | 0.00 | 0.00 | 44 | 1015.8 |
| 20260830215859 | 77 | 10 | 9.0 | 15.0 | 0.00 | 0.00 | 0.00 | 40 | 1015.9 |
| 20260830215356 | 77 | 355 | 9.0 | 15.0 | 0.00 | 0.00 | 0.00 | 43 | 1016.0 |
| 20260830214856 | 77 | 332 | 9.0 | 15.0 | 0.00 | 0.00 | 0.00 | 40 | 1016.0 |
| 20260830214354 | 76 | 44 | 9.0 | 17.0 | 0.00 | 0.00 | 0.00 | 41 | 1016.0 |
| 20260830213853 | 76 | 31 | 8.0 | 17.0 | 0.00 | 0.00 | 0.00 | 41 | 1016.1 |
| 20260830213353 | 77 | 36 | 9.0 | 16.0 | 0.00 | 0.00 | 0.00 | 42 | 1016.2 |
| 20260830212851 | 76 | 28 | 10.0 | 16.0 | 0.00 | 0.00 | 0.00 | 43 | 1016.3 |
| 20260830212351 | 77 | 326 | 9.0 | 16.0 | 0.00 | 0.00 | 0.00 | 44 | 1016.4 |
| 20260830211850 | 76 | 9 | 8.0 | 16.0 | 0.00 | 0.00 | 0.00 | 46 | 1016.3 |
| 20260830211351 | 76 | 14 | 9.0 | 14.0 | 0.00 | 0.00 | 0.00 | 45 | 1016.4 |
| 20260830210852 | 76 | 29 | 9.0 | 17.0 | 0.00 | 0.00 | 0.00 | 44 | 1016.5 |
| 20260830210349 | 76 | 10 | 10.0 | 17.0 | 0.00 | 0.00 | 0.00 | 45 | 1016.5 |
| 20260830205848 | 76 | 353 | 9.0 | 16.0 | 0.00 | 0.00 | 0.00 | 45 | 1016.5 |
| 20260830205348 | 75 | 4 | 9.0 | 15.0 | 0.00 | 0.00 | 0.00 | 43 | 1016.7 |
| 20260830205115 | 75 | 4 | 10.0 | 17.0 | 0.00 | 0.00 | 0.00 | 46 | 1016.7 |
| 20260830204346 | 75 | 15 | 10.0 | 17.0 | 0.00 | 0.00 | 0.00 | 46 | 1016.8 |
| 20260830203844 | 75 | 326 | 9.0 | 17.0 | 0.00 | 0.00 | 0.00 | 44 | 1016.8 |
| 20260830203344 | 75 | 4 | 10.0 | 19.0 | 0.00 | 0.00 | 0.00 | 46 | 1016.7 |
| 20260830202844 | 74 | 337 | 9.0 | 19.0 | 0.00 | 0.00 | 0.00 | 45 | 1016.8 |
| 20260830202820 | 74 | 30 | 9.0 | 15.0 | 0.00 | 0.00 | 0.00 | 46 | 1017.0 |
| 20260830201841 | 74 | 11 | 8.0 | 15.0 | 0.00 | 0.00 | 0.00 | 45 | 1017.0 |
| 20260830201607 | 74 | 31 | 8.0 | 13.0 | 0.00 | 0.00 | 0.00 | 47 | 1017.1 |
| 20260830200841 | 74 | 14 | 8.0 | 15.0 | 0.00 | 0.00 | 0.00 | 47 | 1017.2 |
| 20260830200342 | 74 | 347 | 9.0 | 18.0 | 0.00 | 0.00 | 0.00 | 46 | 1017.3 |
| 20260830195841 | 74 | 305 | 9.0 | 18.0 | 0.00 | 0.00 | 0.00 | 46 | 1017.2 |
| 20260830195341 | 74 | 20 | 8.0 | 14.0 | 0.00 | 0.00 | 0.00 | 47 | 1017.3 |
| 20260830194834 | 74 | 37 | 7.0 | 14.0 | 0.00 | 0.00 | 0.00 | 47 | 1017.4 |
| 20260830194549 | 73 | 3 | 7.0 | 13.0 | 0.00 | 0.00 | 0.00 | 53 | 1017.5 |
| 20260830193833 | 72 | 60 | 8.0 | 15.0 | 0.00 | 0.00 | 0.00 | 49 | 1017.7 |
| 20260830193333 | 73 | 20 | 8.0 | 15.0 | 0.00 | 0.00 | 0.00 | 49 | 1017.7 |
| 20260830192832 | 72 | 324 | 9.0 | 16.0 | 0.00 | 0.00 | 0.00 | 53 | 1017.8 |
| 20260830192324 | 71 | 3 | 8.0 | 16.0 | 0.00 | 0.00 | 0.00 | 52 | 1017.8 |
| 20260830191825 | 71 | 41 | 6.0 | 15.0 | 0.00 | 0.00 | 0.00 | 54 | 1018.1 |
| 20260830191325 | 70 | 66 | 8.0 | 16.0 | 0.00 | 0.00 | 0.00 | 53 | 1018.0 |
| 20260830190817 | 71 | 54 | 8.0 | 16.0 | 0.00 | 0.00 | 0.00 | 52 | 1018.1 |
| 20260830190316 | 71 | 25 | 8.0 | 15.0 | 0.00 | 0.00 | 0.00 | 57 | 1018.2 |
| 20260830185817 | 71 | 353 | 8.0 | 15.0 | 0.00 | 0.00 | 0.00 | 56 | 1018.4 |
| 20260830185313 | 70 | 7 | 8.0 | 14.0 | 0.00 | 0.00 | 0.00 | 58 | 1018.4 |
| 20260830184813 | 70 | 18 | 8.0 | 14.0 | 0.00 | 0.00 | 0.00 | 57 | 1018.6 |
| 20260830184310 | 69 | 0 | 9.0 | 16.0 | 0.00 | 0.00 | 0.00 | 58 | 1018.5 |
| 20260830183811 | 69 | 37 | 9.0 | 16.0 | 0.00 | 0.00 | 0.00 | 58 | 1018.6 |
| 20260830183516 | 68 | 354 | 8.0 | 16.0 | 0.00 | 0.00 | 0.00 | 60 | 1018.7 |
| 20260830183406 | 69 | 66 | 8.0 | 16.0 | 0.00 | 0.00 | 0.00 | 58 | 1018.6 |
| 20260830182308 | 69 | 14 | 7.0 | 15.0 | 0.00 | 0.00 | 0.00 | 61 | 1018.7 |
| 20260830181805 | 68 | 11 | 8.0 | 15.0 | 0.00 | 0.00 | 0.00 | 61 | 1018.7 |
| 20260830181304 | 68 | 354 | 8.0 | 17.0 | 0.00 | 0.00 | 0.00 | 63 | 1018.8 |
| 20260830180805 | 67 | 35 | 9.0 | 17.0 | 0.00 | 0.00 | 0.00 | 62 | 1018.7 |
| 20260830180304 | 68 | 12 | 8.0 | 15.0 | 0.00 | 0.00 | 0.00 | 62 | 1018.7 |
| 20260830175803 | 67 | 355 | 7.0 | 15.0 | 0.00 | 0.00 | 0.00 | 64 | 1018.8 |
| 20260830175532 | 67 | 347 | 7.0 | 13.0 | 0.00 | 0.00 | 0.00 | 66 | 1018.8 |
| 20260830174801 | 66 | 32 | 8.0 | 13.0 | 0.00 | 0.00 | 0.00 | 63 | 1018.7 |
| 20260830174259 | 65 | 0 | 6.0 | 14.0 | 0.00 | 0.00 | 0.00 | 64 | 1018.7 |
| 20260830173759 | 66 | 22 | 6.0 | 14.0 | 0.00 | 0.00 | 0.00 | 67 | 1018.7 |
| 20260830173515 | 65 | 38 | 7.0 | 12.0 | 0.00 | 0.00 | 0.00 | 68 | 1018.9 |
| 20260830172758 | 65 | 67 | 6.0 | 12.0 | 0.00 | 0.00 | 0.00 | 68 | 1018.8 |
| 20260830172257 | 65 | 326 | 6.0 | 12.0 | 0.00 | 0.00 | 0.00 | 67 | 1018.8 |
| 20260830171756 | 64 | 16 | 6.0 | 12.0 | 0.00 | 0.00 | 0.00 | 68 | 1018.9 |
| 20260830171259 | 65 | 345 | 5.0 | 12.0 | 0.00 | 0.00 | 0.00 | 69 | 1018.7 |
| 20260830170759 | 64 | 35 | 4.0 | 9.0 | 0.00 | 0.00 | 0.00 | 68 | 1018.9 |
| 20260830170255 | 64 | 40 | 5.0 | 10.0 | 0.00 | 0.00 | 0.00 | 71 | 1018.8 |
| 20260830165754 | 63 | 345 | 4.0 | 10.0 | 0.00 | 0.00 | 0.00 | 69 | 1018.8 |
| 20260830165254 | 63 | 29 | 2.0 | 8.0 | 0.00 | 0.00 | 0.00 | 73 | 1018.8 |
| 20260830164755 | 61 | 322 | 2.0 | 5.0 | 0.00 | 0.00 | 0.00 | 75 | 1019.1 |
| 20260830164254 | 61 | 67 | 2.0 | 7.0 | 0.00 | 0.00 | 0.00 | 77 | 1019.1 |
| 20260830163753 | 60 | 343 | 3.0 | 7.0 | 0.00 | 0.00 | 0.00 | 76 | 1019.2 |
| 20260830163256 | 60 | 62 | 3.0 | 7.0 | 0.00 | 0.00 | 0.00 | 76 | 1019.2 |
| 20260830162749 | 59 | 75 | 1.0 | 6.0 | 0.00 | 0.00 | 0.00 | 79 | 1019.2 |
| 20260830162251 | 59 | 337 | 2.0 | 6.0 | 0.00 | 0.00 | 0.00 | 80 | 1019.3 |
| 20260830161749 | 58 | 61 | 3.0 | 9.0 | 0.00 | 0.00 | 0.00 | 79 | 1019.4 |
| 20260830161517 | 58 | 34 | 4.0 | 9.0 | 0.00 | 0.01 | 0.00 | 79 | 1019.4 |
| 20260830160746 | 58 | 41 | 4.0 | 10.0 | 0.00 | 0.02 | 0.00 | 80 | 1019.4 |
| 20260830160246 | 57 | 18 | 4.0 | 10.0 | 0.00 | 0.02 | 0.00 | 81 | 1019.5 |
| 20260830155750 | 57 | 29 | 3.0 | 8.0 | 0.00 | 0.02 | 0.00 | 83 | 1019.5 |
| 20260830155240 | 56 | 75 | 2.0 | 5.0 | 0.00 | 0.02 | 0.00 | 82 | 1019.6 |
| 20260830154740 | 56 | 355 | 3.0 | 7.0 | 0.00 | 0.02 | 0.00 | 86 | 1019.6 |
| 20260830154506 | 55 | 16 | 3.0 | 7.0 | 0.00 | 0.02 | 0.00 | 84 | 1019.5 |
| 20260830153733 | 55 | 62 | 2.0 | 7.0 | 0.00 | 0.02 | 0.00 | 85 | 1019.7 |
| 20260830153235 | 55 | 8 | 2.0 | 7.0 | 0.00 | 0.02 | 0.00 | 86 | 1019.6 |
| 20260830152735 | 54 | 72 | 1.0 | 7.0 | 0.00 | 0.02 | 0.00 | 87 | 1019.6 |
| 20260830152229 | 54 | 359 | 1.0 | 4.0 | 0.00 | 0.02 | 0.00 | 87 | 1019.7 |
| 20260830151951 | 53 | 45 | 1.0 | 4.0 | 0.00 | 0.02 | 0.00 | 89 | 1019.7 |
| 20260830151213 | 52 | 345 | 0.0 | 2.0 | 0.00 | 0.02 | 0.00 | 90 | 1019.7 |
| 20260830150711 | 52 | 330 | 0.0 | 0.0 | 0.00 | 0.02 | 0.00 | 91 | 1019.7 |
| 20260830150213 | 51 | 330 | 0.0 | 0.0 | 0.00 | 0.02 | 0.00 | 91 | 1019.7 |
| 20260830145715 | 51 | 329 | 0.0 | 0.0 | 0.00 | 0.02 | 0.00 | 92 | 1019.6 |
| 20260830145154 | 50 | 329 | 0.0 | 0.0 | 0.00 | 0.02 | 0.00 | 93 | 1019.6 |
| 20260830144653 | 49 | 329 | 0.0 | 0.0 | 0.00 | 0.02 | 0.00 | 94 | 1019.7 |
| 20260830144138 | 48 | 329 | 0.0 | 0.0 | 0.00 | 0.02 | 0.00 | 94 | 1019.7 |
| 20260830143626 | 47 | 329 | 0.0 | 0.0 | 0.00 | 0.02 | 0.00 | 94 | 1019.7 |
| 20260830143110 | 47 | 329 | 0.0 | 0.0 | 0.00 | 0.02 | 0.00 | 94 | 1019.7 |
| 20260830142605 | 47 | 329 | 0.0 | 0.0 | 0.00 | 0.02 | 0.00 | 94 | 1019.6 |
| 20260830142100 | 46 | 329 | 0.0 | 0.0 | 0.00 | 0.02 | 0.00 | 94 | 1019.6 |
| 20260830141553 | 46 | 329 | 0.0 | 0.0 | 0.00 | 0.02 | 0.00 | 93 | 1019.6 |
| 20260830141052 | 46 | 329 | 0.0 | 0.0 | 0.00 | 0.02 | 0.00 | 92 | 1019.6 |
| 20260830140545 | 47 | 329 | 0.0 | 0.0 | 0.00 | 0.02 | 0.00 | 93 | 1019.5 |
| 20260830140041 | 47 | 329 | 0.0 | 0.0 | 0.00 | 0.02 | 0.00 | 93 | 1019.6 |
| 20260830135535 | 47 | 329 | 0.0 | 0.0 | 0.00 | 0.02 | 0.00 | 93 | 1019.6 |
| 20260830135034 | 47 | 329 | 0.0 | 0.0 | 0.00 | 0.02 | 0.00 | 93 | 1019.5 |
| 20260830134534 | 46 | 329 | 0.0 | 0.0 | 0.00 | 0.02 | 0.00 | 93 | 1019.6 |
| 20260830134250 | 46 | 329 | 0.0 | 0.0 | 0.00 | 0.02 | 0.00 | 93 | 1019.5 |
| 20260830133754 | 46 | 329 | 0.0 | 0.0 | 0.00 | 0.02 | 0.00 | 93 | 1019.4 |
| 20260830133025 | 46 | 329 | 0.0 | 0.0 | 0.00 | 0.02 | 0.00 | 93 | 1019.4 |
| 20260830132527 | 46 | 329 | 0.0 | 0.0 | 0.00 | 0.02 | 0.00 | 93 | 1019.4 |
| 20260830132018 | 46 | 329 | 0.0 | 0.0 | 0.00 | 0.02 | 0.00 | 93 | 1019.4 |
| 20260830131722 | 46 | 329 | 0.0 | 0.0 | 0.00 | 0.02 | 0.00 | 93 | 1019.4 |
| 20260830130958 | 46 | 329 | 0.0 | 0.0 | 0.00 | 0.02 | 0.00 | 93 | 1019.3 |
| 20260830130450 | 46 | 329 | 0.0 | 0.0 | 0.00 | 0.02 | 0.00 | 93 | 1019.3 |
| 20260830125944 | 47 | 329 | 0.0 | 0.0 | 0.00 | 0.02 | 0.00 | 93 | 1019.3 |
| 20260830125440 | 47 | 329 | 0.0 | 0.0 | 0.00 | 0.02 | 0.00 | 93 | 1019.3 |
| 20260830124929 | 47 | 329 | 0.0 | 2.0 | 0.00 | 0.02 | 0.00 | 93 | 1019.2 |
| 20260830124429 | 47 | 329 | 1.0 | 2.0 | 0.00 | 0.02 | 0.00 | 93 | 1019.3 |
| 20260830123930 | 47 | 329 | 1.0 | 2.0 | 0.00 | 0.02 | 0.00 | 93 | 1019.2 |
| 20260830123653 | 47 | 329 | 0.0 | 2.0 | 0.00 | 0.02 | 0.00 | 92 | 1019.4 |
| 20260830122928 | 47 | 329 | 0.0 | 1.0 | 0.00 | 0.02 | 0.00 | 93 | 1019.3 |
| 20260830122418 | 47 | 329 | 0.0 | 2.0 | 0.00 | 0.02 | 0.00 | 92 | 1019.3 |
| 20260830122135 | 47 | 329 | 0.0 | 2.0 | 0.00 | 0.02 | 0.00 | 92 | 1019.3 |
| 20260830121408 | 47 | 329 | 0.0 | 1.0 | 0.00 | 0.02 | 0.00 | 92 | 1019.3 |
| 20260830121108 | 48 | 329 | 0.0 | 1.0 | 0.00 | 0.02 | 0.00 | 92 | 1019.2 |
| 20260830120601 | 47 | 329 | 0.0 | 2.0 | 0.00 | 0.02 | 0.00 | 92 | 1019.3 |
| 20260830120147 | 48 | 329 | 1.0 | 2.0 | 0.00 | 0.02 | 0.00 | 92 | 1019.2 |
| 20260830120046 | 48 | 329 | 0.0 | 1.0 | 0.00 | 0.02 | 0.00 | 91 | 1019.2 |
| 20260830114826 | 48 | 329 | 0.0 | 1.0 | 0.00 | 0.02 | 0.00 | 91 | 1019.2 |
| 20260830114533 | 48 | 329 | 0.0 | 3.0 | 0.00 | 0.02 | 0.00 | 91 | 1019.1 |
| 20260830113752 | 49 | 338 | 0.0 | 0.0 | 0.00 | 0.02 | 0.00 | 91 | 1019.0 |
| 20260830113254 | 49 | 317 | 0.0 | 0.0 | 0.00 | 0.02 | 0.00 | 91 | 1019.1 |
| 20260830112742 | 49 | 324 | 0.0 | 0.0 | 0.00 | 0.02 | 0.00 | 91 | 1019.0 |
| 20260830112229 | 50 | 303 | 0.0 | 0.0 | 0.00 | 0.02 | 0.00 | 92 | 1019.0 |
| 20260830111714 | 50 | 303 | 0.0 | 0.0 | 0.00 | 0.02 | 0.00 | 92 | 1019.0 |
| 20260830111158 | 51 | 324 | 0.0 | 0.0 | 0.00 | 0.02 | 0.00 | 92 | 1018.9 |
| 20260830110659 | 50 | 308 | 0.0 | 0.0 | 0.00 | 0.02 | 0.00 | 92 | 1018.9 |
| 20260830110145 | 50 | 334 | 0.0 | 2.0 | 0.00 | 0.02 | 0.00 | 91 | 1019.0 |
| 20260830105828 | 50 | 334 | 1.0 | 2.0 | 0.00 | 0.02 | 0.00 | 89 | 1019.0 |
| 20260830105719 | 49 | 334 | 1.0 | 2.0 | 0.00 | 0.02 | 0.00 | 90 | 1019.0 |
| 20260830104608 | 50 | 334 | 1.0 | 2.0 | 0.00 | 0.02 | 0.00 | 89 | 1019.0 |
| 20260830104101 | 50 | 334 | 0.0 | 2.0 | 0.00 | 0.02 | 0.00 | 89 | 1019.0 |
| 20260830103606 | 50 | 334 | 1.0 | 3.0 | 0.00 | 0.02 | 0.00 | 89 | 1019.0 |
| 20260830103101 | 51 | 334 | 1.0 | 3.0 | 0.00 | 0.02 | 0.00 | 89 | 1019.0 |
| 20260830102817 | 51 | 334 | 1.0 | 3.0 | 0.00 | 0.02 | 0.00 | 88 | 1019.1 |
| 20260830102057 | 51 | 334 | 2.0 | 3.0 | 0.00 | 0.02 | 0.00 | 88 | 1019.1 |
| 20260830101554 | 51 | 334 | 1.0 | 3.0 | 0.00 | 0.02 | 0.00 | 88 | 1019.1 |
| 20260830101050 | 51 | 334 | 2.0 | 3.0 | 0.00 | 0.02 | 0.00 | 88 | 1019.1 |
| 20260830100553 | 51 | 334 | 1.0 | 3.0 | 0.00 | 0.02 | 0.00 | 88 | 1019.1 |
| 20260830100048 | 51 | 298 | 0.0 | 2.0 | 0.00 | 0.02 | 0.00 | 88 | 1019.1 |
| 20260830095543 | 51 | 298 | 0.0 | 1.0 | 0.00 | 0.02 | 0.00 | 87 | 1019.1 |
| 20260830095040 | 51 | 298 | 0.0 | 1.0 | 0.00 | 0.02 | 0.00 | 87 | 1019.1 |
| 20260830094527 | 51 | 298 | 1.0 | 2.0 | 0.00 | 0.02 | 0.00 | 87 | 1019.0 |
| 20260830094028 | 51 | 298 | 1.0 | 3.0 | 0.00 | 0.02 | 0.00 | 87 | 1019.0 |
| 20260830093525 | 51 | 298 | 2.0 | 3.0 | 0.00 | 0.02 | 0.00 | 87 | 1019.0 |
| 20260830093023 | 51 | 298 | 2.0 | 3.0 | 0.00 | 0.02 | 0.00 | 87 | 1019.0 |
| 20260830092523 | 51 | 298 | 2.0 | 3.0 | 0.00 | 0.02 | 0.00 | 87 | 1019.0 |
| 20260830092252 | 51 | 286 | 2.0 | 3.0 | 0.00 | 0.02 | 0.00 | 87 | 1019.0 |
| 20260830091518 | 51 | 268 | 2.0 | 3.0 | 0.00 | 0.02 | 0.00 | 87 | 1019.0 |
| 20260830091003 | 51 | 270 | 2.0 | 3.0 | 0.00 | 0.02 | 0.00 | 86 | 1019.0 |
| 20260830090952 | 51 | 270 | 2.0 | 3.0 | 0.00 | 0.02 | 0.00 | 86 | 1019.1 |
| 20260830085954 | 51 | 297 | 2.0 | 3.0 | 0.00 | 0.02 | 0.00 | 86 | 1019.1 |
| 20260830085456 | 51 | 297 | 1.0 | 3.0 | 0.00 | 0.02 | 0.00 | 86 | 1019.1 |
| 20260830084955 | 51 | 297 | 0.0 | 2.0 | 0.00 | 0.02 | 0.00 | 86 | 1019.0 |
| 20260830084457 | 51 | 297 | 0.0 | 1.0 | 0.00 | 0.02 | 0.00 | 85 | 1019.0 |
| 20260830083949 | 51 | 297 | 0.0 | 2.0 | 0.00 | 0.02 | 0.00 | 85 | 1019.0 |
| 20260830083710 | 51 | 297 | 1.0 | 3.0 | 0.00 | 0.02 | 0.00 | 85 | 1019.0 |
| 20260830082944 | 52 | 297 | 1.0 | 3.0 | 0.00 | 0.02 | 0.00 | 85 | 1019.0 |
| 20260830082443 | 51 | 314 | 0.0 | 3.0 | 0.00 | 0.02 | 0.00 | 85 | 1019.0 |
| 20260830081933 | 51 | 353 | 0.0 | 0.0 | 0.00 | 0.02 | 0.00 | 85 | 1019.1 |
| 20260830081428 | 51 | 353 | 0.0 | 0.0 | 0.00 | 0.02 | 0.00 | 84 | 1019.1 |
| 20260830080928 | 51 | 353 | 0.0 | 0.0 | 0.00 | 0.02 | 0.00 | 84 | 1019.0 |
| 20260830080419 | 52 | 353 | 0.0 | 0.0 | 0.00 | 0.02 | 0.00 | 84 | 1019.0 |
| 20260830075906 | 52 | 353 | 0.0 | 0.0 | 0.00 | 0.02 | 0.00 | 83 | 1018.9 |
| 20260830075356 | 52 | 353 | 0.0 | 0.0 | 0.00 | 0.02 | 0.00 | 83 | 1018.9 |
| 20260830074851 | 52 | 353 | 0.0 | 0.0 | 0.00 | 0.02 | 0.00 | 83 | 1018.9 |
| 20260830074600 | 52 | 353 | 0.0 | 0.0 | 0.00 | 0.02 | 0.00 | 82 | 1018.9 |
| 20260830073830 | 53 | 353 | 0.0 | 0.0 | 0.00 | 0.02 | 0.00 | 82 | 1018.9 |
| 20260830073329 | 52 | 353 | 0.0 | 2.0 | 0.00 | 0.02 | 0.00 | 83 | 1018.9 |
| 20260830072828 | 52 | 353 | 0.0 | 2.0 | 0.00 | 0.02 | 0.00 | 83 | 1018.8 |
| 20260830072550 | 51 | 353 | 0.0 | 2.0 | 0.00 | 0.02 | 0.00 | 83 | 1018.9 |
| 20260830072049 | 52 | 353 | 0.0 | 2.0 | 0.00 | 0.02 | 0.00 | 82 | 1018.8 |
| 20260830071320 | 52 | 353 | 0.0 | 1.0 | 0.00 | 0.02 | 0.00 | 81 | 1018.7 |
| 20260830071035 | 53 | 353 | 1.0 | 2.0 | 0.00 | 0.02 | 0.00 | 81 | 1018.9 |
| 20260830070243 | 52 | 353 | 1.0 | 2.0 | 0.00 | 0.02 | 0.00 | 81 | 1018.7 |
| 20260830065739 | 53 | 353 | 0.0 | 2.0 | 0.00 | 0.02 | 0.02 | 80 | 1018.7 |
| 20260830065236 | 53 | 353 | 0.0 | 0.0 | 0.00 | 0.02 | 0.02 | 80 | 1018.7 |
| 20260830064737 | 53 | 353 | 0.0 | 0.0 | 0.00 | 0.02 | 0.02 | 80 | 1018.8 |
| 20260830064235 | 53 | 353 | 0.0 | 0.0 | 0.00 | 0.02 | 0.02 | 80 | 1018.7 |
| 20260830063722 | 54 | 353 | 0.0 | 0.0 | 0.00 | 0.02 | 0.02 | 79 | 1018.7 |
| 20260830063216 | 54 | 353 | 0.0 | 0.0 | 0.00 | 0.02 | 0.02 | 79 | 1018.9 |
| 20260830062657 | 54 | 353 | 0.0 | 0.0 | 0.00 | 0.02 | 0.02 | 81 | 1018.9 |
| 20260830062154 | 53 | 353 | 0.0 | 0.0 | 0.00 | 0.02 | 0.02 | 81 | 1018.9 |
| 20260830061640 | 53 | 353 | 0.0 | 0.0 | 0.00 | 0.02 | 0.02 | 79 | 1018.9 |
| 20260830061612 | 55 | 353 | 0.0 | 0.0 | 0.00 | 0.02 | 0.02 | 77 | 1018.7 |
| 20260830060612 | 56 | 353 | 0.0 | 0.0 | 0.00 | 0.02 | 0.02 | 75 | 1018.7 |
| 20260830060106 | 56 | 353 | 0.0 | 2.0 | 0.00 | 0.02 | 0.02 | 74 | 1018.7 |
| 20260830055559 | 56 | 353 | 1.0 | 2.0 | 0.00 | 0.02 | 0.02 | 74 | 1018.7 |
| 20260830055043 | 56 | 353 | 1.0 | 2.0 | 0.00 | 0.02 | 0.02 | 74 | 1018.8 |
| 20260830054534 | 56 | 353 | 1.0 | 3.0 | 0.00 | 0.02 | 0.02 | 74 | 1018.8 |
| 20260830054027 | 56 | 353 | 1.0 | 3.0 | 0.00 | 0.02 | 0.02 | 74 | 1018.9 |
| 20260830053523 | 55 | 339 | 0.0 | 3.0 | 0.00 | 0.02 | 0.02 | 75 | 1018.9 |
| 20260830053016 | 55 | 339 | 0.0 | 3.0 | 0.00 | 0.02 | 0.02 | 74 | 1018.8 |
| 20260830052513 | 57 | 339 | 0.0 | 3.0 | 0.00 | 0.02 | 0.02 | 72 | 1018.7 |
| 20260830052018 | 58 | 339 | 0.0 | 2.0 | 0.00 | 0.02 | 0.02 | 71 | 1018.7 |
| 20260830051513 | 58 | 339 | 1.0 | 3.0 | 0.00 | 0.02 | 0.02 | 70 | 1018.7 |
| 20260830051234 | 58 | 351 | 2.0 | 3.0 | 0.00 | 0.02 | 0.02 | 70 | 1018.7 |
| 20260830050509 | 58 | 349 | 2.0 | 3.0 | 0.00 | 0.02 | 0.02 | 70 | 1018.7 |
| 20260830050007 | 59 | 353 | 1.0 | 3.0 | 0.00 | 0.02 | 0.02 | 69 | 1018.7 |
| 20260830045504 | 59 | 14 | 1.0 | 2.0 | 0.00 | 0.02 | 0.02 | 68 | 1018.8 |
| 20260830045003 | 60 | 14 | 1.0 | 3.0 | 0.00 | 0.02 | 0.02 | 67 | 1018.9 |
| 20260830044455 | 60 | 14 | 1.0 | 3.0 | 0.00 | 0.02 | 0.02 | 67 | 1018.7 |
| 20260830044000 | 60 | 35 | 1.0 | 3.0 | 0.00 | 0.02 | 0.02 | 66 | 1018.7 |
| 20260830043457 | 60 | 35 | 1.0 | 4.0 | 0.00 | 0.02 | 0.02 | 67 | 1018.8 |
| 20260830043202 | 60 | 35 | 2.0 | 4.0 | 0.00 | 0.02 | 0.02 | 67 | 1018.7 |
| 20260830042437 | 61 | 42 | 2.0 | 4.0 | 0.00 | 0.02 | 0.02 | 67 | 1018.8 |